Temperature
10 10 10 9 9 9 9 9 8 8 8 8 8 8 8 8 8 8 8 8 8 8 7 7 6 6 5 5 5 5 5 5 5 5 5 5 5 4 4 4 4 4 3
9 9 9 9 9 9 8 8 8 8 8 8 8 8 8 8 8 8 8 8 8 7 7 7 6 5 5 5 4 4 5 5 4 4 4 4 4 4 4 4 3 3 3
9 9 9 9 9 8 8 8 8 8 8 8 8 8 8 8 8 8 7 7 7 7 7 7 7 6 5 4 4 4 4 4 4 4 4 4 3 3 3 3 3 3 3
9 8 8 8 8 8 7 7 7 7 7 7 7 7 7 7 7 7 7 7 7 7 7 7 7 7 6 5 4 4 4 3 3 3 3 3 3 3 3 3 3 2 2
8 8 8 8 8 7 7 7 7 7 7 7 7 7 7 7 7 7 7 7 7 7 7 7 7 7 7 6 5 4 4 3 3 3 3 3 3 3 2 2 2 2 2
8 8 8 8 7 7 7 7 7 7 6 6 6 6 6 7 7 7 7 7 7 7 7 7 7 7 7 6 6 5 4 3 3 3 3 3 2 2 2 2 2 2 1
9 8 8 8 7 7 7 7 6 6 6 6 5 5 6 6 6 7 7 7 8 8 8 8 7 7 7 7 6 6 5 4 3 3 3 2 2 2 2 2 1 1 1
9 8 8 8 7 7 7 6 6 6 6 5 5 4 4 5 6 7 7 7 8 8 8 8 8 7 7 7 6 6 5 5 4 3 3 2 2 2 2 1 1 1 1
9 8 8 8 7 7 6 6 6 5 5 5 5 4 3 4 4 5 5 5 5 6 6 6 7 7 7 7 6 6 5 5 4 3 3 2 2 2 1 1 1 1 1
8 8 8 7 7 6 6 6 6 5 5 4 4 4 4 3 3 3 4 4 4 4 4 5 5 5 5 6 6 6 5 5 5 4 3 2 2 1 1 1 1 1 1
8 8 7 7 7 6 6 6 5 5 5 4 4 4 3 3 2 1 1 2 3 4 4 4 4 4 4 4 4 5 5 5 4 4 3 2 1 1 1 1 1 1 0
8 8 7 7 6 6 6 6 5 5 4 4 4 3 3 2 2 2 1 1 2 3 3 3 3 3 3 3 3 3 3 4 3 3 3 2 1 1 1 1 0 0 0
8 8 7 7 6 6 6 5 5 4 4 3 3 3 3 3 2 2 1 0 0 1 2 2 2 3 2 2 2 2 2 2 2 2 2 1 1 1 0 0 -0 -0 -0
7 7 7 6 6 6 5 5 5 4 4 3 3 3 3 2 2 2 1 1 -1 -1 -0 1 1 2 2 2 2 1 1 1 1 1 0 0 0 0 -0 -0 -0 -1 -1
6 6 6 6 6 6 5 5 4 4 4 3 3 3 2 2 2 2 1 1 -1 -3 -1 -0 0 1 1 1 1 1 1 0 -0 -0 -1 -1 -1 -1 -1 -1 -1 -1 -1
6 6 6 5 5 5 5 4 4 4 3 3 3 2 2 2 2 1 1 0 -1 -2 -3 -1 -1 -0 -0 -0 0 -0 -0 -1 -1 -1 -2 -2 -2 -2 -2 -2 -2 -2 -2
5 5 5 5 5 5 4 4 4 3 3 3 2 2 2 2 1 1 0 -0 -1 -2 -3 -2 -2 -2 -2 -1 -1 -1 -1 -2 -2 -2 -2 -3 -3 -3 -3 -3 -2 -2 -2
5 5 4 4 4 4 3 3 3 2 2 2 2 1 1 1 0 -0 -1 -1 -1 -2 -3 -3 -2 -3 -2 -2 -2 -2 -2 -3 -3 -3 -3 -4 -4 -3 -3 -3 -3 -3 -3
4 4 4 3 3 3 2 2 2 1 1 1 1 1 1 -0 -0 -1 -1 -1 -2 -2 -3 -4 -3 -3 -4 -3 -3 -3 -3 -3 -4 -4 -4 -4 -4 -4 -4 -4 -4 -3 -3
3 3 3 2 2 1 1 1 1 0 0 0 0 -0 -1 -1 -1 -1 -2 -2 -2 -3 -3 -4 -4 -4 -4 -4 -5 -4 -4 -4 -4 -4 -5 -5 -5 -5 -5 -4 -4 -4 -4
2 2 1 1 1 0 0 -0 -1 -1 -1 -1 -1 -1 -1 -1 -2 -2 -2 -2 -3 -3 -4 -5 -5 -5 -5 -5 -5 -4 -5 -5 -5 -5 -5 -5 -5 -5 -5 -5 -4 -4 -4
1 1 1 0 -0 -0 -1 -1 -2 -2 -2 -3 -2 -2 -2 -2 -2 -2 -2 -3 -3 -3 -4 -4 -5 -5 -5 -5 -5 -5 -6 -6 -7 -6 -6 -6 -6 -6 -5 -5 -5 -4 -4
1 0 -0 -1 -1 -1 -2 -2 -3 -3 -3 -3 -3 -3 -3 -3 -3 -3 -3 -3 -3 -3 -3 -3 -4 -4 -4 -4 -5 -5 -6 -6 -6 -6 -6 -6 -6 -6 -5 -5 -5 -5 -5
-1 -1 -1 -2 -2 -2 -3 -3 -4 -4 -4 -4 -4 -3 -3 -3 -3 -3 -3 -3 -3 -3 -3 -3 -3 -4 -4 -4 -4 -5 -5 -6 -6 -6 -7 -7 -7 -6 -6 -5 -5 -5 -5
-1 -2 -2 -3 -3 -3 -3 -4 -4 -4 -4 -4 -4 -4 -4 -4 -3 -4 -4 -4 -4 -4 -4 -4 -4 -4 -4 -4 -5 -5 -6 -7 -7 -7 -7 -7 -7 -6 -6 -6 -5 -5 -5
-3 -3 -3 -3 -4 -3 -4 -4 -4 -4 -4 -4 -4 -4 -4 -4 -4 -4 -4 -4 -4 -4 -4 -4 -4 -5 -5 -5 -5 -5 -6 -6 -7 -7 -7 -7 -7 -7 -7 -6 -5 -5 -5
Wind_Speed
11 11 11 12 11 10 9 9 8 8 8 9 10 11 12 13 15 16 16 15 16 16 15 14 13 13 12 11 11 10 9 8 8 7 6 6 6 6 6 6 6 6 7
15 13 12 12 13 14 13 12 12 10 10 10 11 13 15 16 17 18 19 19 18 18 18 18 17 16 16 15 14 13 12 12 11 10 9 9 8 8 8 8 7 7 8
18 16 13 12 16 17 15 13 11 10 8 9 9 13 15 17 18 19 20 20 21 21 21 21 20 20 19 18 17 16 15 14 14 13 12 11 11 10 10 10 9 9 9
20 17 13 13 17 17 15 10 7 5 6 7 7 8 12 14 17 19 20 21 21 21 23 24 24 23 22 21 21 20 18 17 16 15 15 14 13 13 12 12 11 11 11
21 19 15 16 17 14 12 10 7 6 8 9 9 8 8 10 14 17 18 21 22 23 23 24 26 26 25 25 24 23 21 20 19 18 17 16 16 15 14 14 13 13 13
20 20 16 15 15 9 8 8 9 8 7 8 9 9 8 9 11 13 17 20 22 24 25 24 24 25 27 27 26 25 24 23 22 21 20 19 18 17 17 16 15 15 15
20 19 16 13 13 11 13 12 9 9 9 5 3 6 8 11 14 14 15 16 19 24 24 24 23 23 23 27 28 28 27 26 25 23 22 21 20 19 19 18 18 17 17
20 19 16 11 11 10 11 11 10 6 6 7 6 3 6 6 7 12 12 12 13 15 17 22 23 23 22 22 25 29 29 28 27 26 24 23 22 21 21 20 19 19 19
19 20 19 16 11 11 13 14 14 12 10 8 9 7 6 7 5 5 7 9 10 9 10 15 20 23 24 23 24 28 31 30 29 28 27 25 24 23 22 22 21 21 20
18 20 19 17 13 11 14 14 14 13 12 11 7 11 11 6 6 6 4 5 7 9 11 11 15 20 23 23 25 27 30 31 31 30 29 27 26 25 24 24 23 22 22
13 17 18 15 13 12 14 14 13 14 13 14 10 7 11 11 10 9 12 7 6 8 10 11 11 14 19 22 23 27 30 31 31 31 31 30 28 27 26 25 24 23 22
6 11 14 13 13 12 14 15 14 14 15 15 14 10 9 7 8 12 17 13 11 7 10 11 11 12 17 20 24 28 31 31 32 32 31 30 29 28 27 26 25 24 23
6 9 9 10 11 12 13 12 13 15 16 16 17 15 14 15 9 9 13 14 11 7 7 9 11 13 17 19 21 29 31 32 32 33 32 31 30 29 28 27 26 25 25
8 8 8 9 11 12 13 12 13 15 14 16 18 17 15 14 13 14 12 11 13 11 8 10 6 11 15 19 23 29 25 31 33 33 33 32 32 31 29 28 27 26 25
7 8 8 9 10 11 13 13 12 14 14 15 16 17 17 15 13 14 13 13 13 14 14 9 9 10 14 18 24 22 22 28 31 32 33 33 32 32 30 29 27 27 26
8 8 9 9 10 11 11 12 12 14 15 16 14 16 17 15 14 14 14 14 15 16 15 6 9 8 11 12 22 22 21 28 31 31 31 32 32 32 31 29 28 27 27
8 9 9 9 10 10 10 11 13 13 15 16 15 16 19 17 15 14 14 14 15 15 21 16 8 9 12 12 12 15 19 20 20 29 30 31 32 31 31 30 29 28 28
9 9 9 10 11 11 10 11 13 13 14 16 16 16 18 15 18 15 14 16 16 16 19 23 10 9 13 12 12 11 11 16 16 26 29 29 30 31 31 30 29 29 28
10 10 9 11 11 11 11 12 13 14 14 15 15 16 17 15 18 15 16 16 15 16 16 19 17 9 10 9 10 11 12 10 13 21 26 29 30 31 31 30 30 29 29
11 11 11 11 12 12 12 12 13 14 15 15 15 15 16 16 18 17 16 17 16 16 16 17 17 10 9 6 8 11 11 11 12 12 18 22 25 29 30 30 30 29 29
12 12 12 13 12 11 11 12 12 14 15 15 15 15 16 20 23 20 16 14 14 15 15 16 17 13 11 8 9 9 13 10 11 11 10 11 11 11 13 23 27 28 28
12 12 12 13 14 13 21 26 22 14 13 14 15 14 15 20 24 28 30 28 23 18 18 17 16 16 14 13 11 11 11 10 10 8 11 12 10 11 10 12 23 26 27
13 13 12 13 15 17 26 28 28 19 14 14 14 13 13 13 19 15 21 28 27 30 28 20 20 19 15 13 13 14 13 11 13 7 8 10 9 12 10 15 25 27 27
13 13 14 14 15 18 27 28 28 19 14 14 13 14 14 14 14 15 14 15 16 17 19 17 16 15 14 12 14 15 14 14 9 8 9 8 8 10 10 10 23 26 27
14 13 14 14 16 18 26 28 27 13 12 13 13 13 14 14 21 24 17 15 15 15 21 27 25 21 24 25 19 12 12 11 11 10 10 8 6 8 9 10 15 25 26
15 15 15 14 15 16 24 27 26 11 12 12 11 12 18 19 22 23 15 13 15 13 11 12 15 17 15 17 24 17 14 13 8 8 9 9 7 6 6 7 10 10 13
Wind_Direction
184 191 199 206 212 216 217 220 226 234 241 246 247 246 248 249 251 254 257 261 267 268 268 267 264 261 258 256 256 256 257 259 261 264 270 277 285 293 300 306 312 318 322
192 194 201 209 215 218 222 224 228 232 241 248 252 250 250 252 253 253 255 257 261 264 265 265 264 262 260 258 255 254 254 255 257 259 262 266 271 277 283 288 294 299 303
199 199 203 211 218 221 222 225 231 236 246 248 251 252 252 252 251 252 253 253 254 258 261 262 263 262 261 259 257 255 254 254 255 257 259 260 263 267 271 277 282 286 290
205 203 209 218 219 216 215 215 217 223 236 240 248 250 249 250 250 251 251 250 250 250 253 256 259 260 260 258 256 255 253 253 253 254 256 257 259 262 266 269 273 277 280
209 208 217 222 215 210 213 220 214 212 231 239 245 249 246 248 249 250 248 247 245 244 245 250 253 254 255 256 256 254 253 251 251 252 253 255 257 258 261 264 266 270 274
213 215 223 222 209 207 216 218 225 217 225 237 253 259 249 244 244 244 246 247 244 241 240 240 243 247 250 251 252 253 252 251 250 250 251 253 254 256 258 260 262 265 268
216 217 227 221 211 218 225 220 219 225 232 213 245 276 263 244 243 243 240 240 241 239 236 234 235 236 242 247 249 249 250 250 249 248 249 250 252 254 256 257 259 261 263
221 223 226 228 218 224 228 221 212 215 223 191 195 239 294 295 246 238 235 234 237 236 235 235 233 233 234 236 241 246 248 249 249 248 247 248 250 251 253 255 257 258 260
227 227 228 228 225 221 230 227 219 217 230 214 202 200 227 250 294 261 235 234 233 229 232 234 234 234 233 233 236 242 244 245 246 247 247 248 249 250 252 254 255 257 258
229 230 232 230 229 227 231 232 224 222 224 230 214 222 229 214 237 289 262 244 237 232 231 233 234 233 233 232 234 237 240 242 243 244 246 247 247 249 250 252 253 255 257
232 233 233 232 233 233 234 234 229 222 222 230 223 211 230 239 233 246 269 259 244 231 229 228 229 231 231 230 232 235 238 239 239 241 243 245 247 248 250 251 253 255 257
242 236 235 235 237 237 237 237 235 229 229 230 231 222 213 213 216 225 248 258 258 239 224 227 226 227 229 229 231 235 237 238 238 239 240 243 245 247 249 251 253 255 256
261 250 237 237 240 240 241 239 236 235 233 232 232 233 231 233 222 222 240 256 257 251 230 228 223 223 227 229 231 237 240 239 238 238 239 241 243 245 247 249 252 254 255
266 263 248 242 242 242 243 240 239 239 238 236 237 234 237 236 231 229 234 246 263 264 239 234 219 220 225 227 230 236 240 241 241 240 240 240 241 242 244 246 249 251 254
273 272 264 256 252 248 246 243 243 241 239 238 238 237 237 239 234 233 233 230 240 263 266 223 212 215 219 224 231 234 232 239 243 243 242 241 241 241 242 244 246 248 251
280 281 277 269 263 257 252 247 248 247 244 242 239 238 238 239 237 234 233 232 230 241 262 237 210 201 210 222 230 232 230 238 243 245 244 243 241 241 241 242 244 247 249
285 281 278 274 270 265 259 254 252 250 248 248 244 241 242 237 238 236 232 232 233 232 251 258 210 203 206 218 229 229 227 232 238 243 244 244 243 241 241 243 244 246 249
284 279 278 276 274 270 264 259 261 258 252 252 249 244 246 242 239 238 235 234 234 231 240 256 245 212 216 217 221 225 227 229 227 239 244 246 245 243 242 242 244 247 249
287 285 280 278 277 273 270 265 263 263 258 255 252 247 247 242 243 240 236 237 236 236 236 248 254 228 224 217 221 229 231 230 227 235 242 245 246 245 243 243 245 246 248
288 287 283 279 276 275 272 270 268 266 264 261 256 251 249 244 243 241 240 238 236 237 237 242 251 240 227 205 211 224 232 227 231 231 237 241 243 245 245 246 246 247 248
286 283 284 283 278 276 274 270 267 265 263 263 259 252 250 249 248 247 243 239 233 237 237 241 246 244 232 212 217 216 230 227 227 223 228 234 237 239 240 246 246 248 248
287 284 282 283 282 282 288 291 290 278 268 265 265 260 255 258 259 259 257 251 238 232 233 235 241 240 235 224 219 217 222 223 232 208 220 231 225 233 232 233 243 247 248
290 289 284 282 283 284 292 294 293 290 280 275 271 269 266 260 261 251 257 260 257 249 237 231 236 237 233 221 216 219 218 216 226 199 197 227 220 229 228 233 239 241 244
293 292 290 287 287 289 295 297 298 294 284 279 273 269 268 265 257 257 249 248 249 253 254 247 239 237 232 222 214 217 219 223 227 210 198 223 214 225 227 226 238 241 244
298 293 292 290 290 293 296 298 298 289 284 279 273 268 268 266 268 270 262 253 251 248 253 253 250 244 237 232 220 215 215 219 228 221 206 215 217 224 228 230 235 241 245
297 298 295 291 288 290 294 298 298 291 287 285 277 268 272 274 273 272 264 256 254 250 239 244 251 255 250 240 232 216 210 215 217 217 199 202 207 200 231 229 228 231 241
Height
1554 1555 1557 1558 1559 1559 1560 1560 1560 1560 1560 1559 1559 1559 1559 1559 1558 1558 1558 1557 1556 1556 1556 1555 1555 1555 1555 1554 1553 1553 1552 1551 1551 1550 1550 1549 1549 1548 1548 1547 1547 1546 1546
1551 1552 1553 1554 1555 1556 1556 1557 1556 1556 1556 1555 1555 1555 1555 1555 1554 1554 1554 1553 1553 1552 1552 1551 1551 1551 1551 1551 1550 1550 1549 1548 1548 1547 1546 1546 1545 1545 1544 1544 1544 1543 1543
1547 1548 1549 1550 1551 1552 1552 1552 1552 1551 1551 1550 1550 1550 1550 1549 1549 1549 1548 1548 1548 1547 1547 1547 1546 1546 1547 1547 1546 1546 1545 1545 1544 1543 1543 1542 1541 1541 1541 1540 1540 1540 1540
1542 1543 1544 1545 1546 1547 1547 1546 1546 1545 1545 1544 1544 1544 1544 1543 1542 1542 1542 1541 1541 1541 1541 1541 1541 1540 1541 1541 1541 1541 1541 1540 1539 1539 1538 1538 1537 1537 1537 1536 1536 1536 1536
1537 1538 1538 1539 1540 1540 1540 1540 1540 1539 1538 1538 1537 1536 1535 1535 1534 1534 1533 1533 1533 1533 1534 1534 1534 1534 1534 1534 1534 1535 1535 1535 1534 1533 1533 1533 1532 1532 1532 1532 1532 1531 1531
1531 1532 1532 1532 1533 1533 1533 1533 1533 1532 1532 1531 1529 1526 1526 1525 1524 1523 1523 1523 1524 1524 1525 1525 1526 1526 1526 1526 1526 1527 1528 1528 1528 1527 1527 1527 1527 1526 1526 1526 1526 1526 1527
1525 1525 1525 1525 1525 1525 1525 1525 1525 1524 1523 1524 1521 1517 1515 1514 1512 1512 1513 1513 1513 1514 1514 1514 1515 1516 1516 1517 1517 1518 1519 1520 1520 1521 1520 1520 1520 1520 1520 1520 1521 1521 1521
1518 1518 1518 1517 1517 1516 1516 1516 1516 1515 1514 1516 1514 1511 1505 1501 1499 1500 1500 1500 1501 1502 1502 1503 1503 1504 1505 1506 1508 1509 1509 1510 1512 1513 1513 1513 1513 1514 1514 1514 1514 1515 1515
1511 1511 1510 1509 1509 1508 1507 1507 1507 1506 1505 1505 1505 1505 1501 1492 1491 1488 1488 1489 1490 1491 1492 1493 1493 1494 1495 1495 1497 1498 1499 1500 1501 1503 1504 1505 1506 1506 1507 1507 1507 1508 1509
1505 1504 1503 1501 1500 1499 1497 1497 1497 1495 1495 1494 1494 1493 1492 1490 1488 1480 1478 1479 1479 1479 1481 1483 1483 1484 1485 1485 1486 1487 1488 1489 1490 1492 1494 1496 1497 1498 1499 1500 1500 1501 1502
1498 1497 1495 1494 1492 1490 1488 1488 1487 1485 1484 1483 1482 1481 1480 1479 1477 1475 1467 1466 1467 1467 1469 1470 1471 1472 1473 1474 1475 1476 1478 1478 1479 1481 1483 1485 1487 1489 1490 1491 1492 1493 1494
1492 1491 1488 1486 1484 1482 1480 1479 1477 1476 1474 1472 1472 1470 1469 1468 1465 1464 1459 1455 1454 1453 1455 1456 1456 1458 1461 1462 1463 1465 1466 1467 1468 1470 1472 1474 1476 1478 1480 1482 1483 1484 1485
1487 1485 1482 1480 1477 1475 1473 1471 1468 1466 1465 1462 1461 1459 1457 1455 1456 1455 1452 1447 1443 1441 1441 1440 1442 1444 1447 1449 1450 1452 1453 1454 1456 1458 1460 1462 1465 1467 1469 1471 1473 1474 1476
1481 1479 1476 1473 1470 1467 1465 1462 1459 1457 1455 1452 1450 1449 1447 1444 1444 1443 1441 1440 1435 1430 1427 1426 1429 1431 1434 1436 1437 1440 1440 1442 1443 1445 1448 1450 1453 1455 1458 1460 1462 1463 1465
1475 1472 1469 1466 1463 1460 1457 1453 1449 1447 1444 1441 1439 1437 1435 1433 1432 1431 1430 1430 1429 1421 1412 1413 1416 1418 1421 1424 1425 1426 1427 1429 1431 1433 1436 1438 1441 1444 1446 1449 1451 1453 1454
1469 1466 1462 1458 1455 1452 1448 1444 1440 1437 1434 1430 1428 1425 1422 1421 1420 1419 1418 1417 1416 1413 1404 1398 1403 1406 1410 1411 1413 1414 1415 1418 1419 1421 1424 1426 1429 1432 1435 1438 1440 1442 1444
1462 1458 1454 1450 1446 1442 1439 1434 1430 1426 1422 1419 1416 1413 1410 1409 1408 1406 1405 1404 1403 1401 1395 1387 1392 1394 1397 1399 1402 1403 1404 1405 1407 1410 1412 1415 1418 1421 1424 1426 1428 1431 1433
1454 1450 1445 1440 1436 1432 1428 1424 1419 1415 1411 1407 1404 1402 1398 1398 1395 1394 1393 1390 1389 1388 1386 1379 1379 1383 1384 1387 1390 1391 1393 1394 1395 1398 1400 1403 1406 1409 1412 1415 1417 1419 1422
1446 1441 1436 1431 1426 1421 1417 1412 1408 1403 1399 1395 1392 1389 1386 1385 1382 1382 1380 1378 1377 1377 1375 1371 1367 1371 1373 1375 1377 1379 1380 1382 1383 1385 1388 1391 1394 1397 1400 1403 1406 1408 1410
1436 1431 1426 1421 1416 1411 1406 1401 1396 1391 1387 1383 1380 1377 1375 1373 1370 1369 1368 1366 1365 1365 1364 1361 1358 1360 1362 1363 1366 1366 1367 1369 1371 1374 1376 1379 1381 1384 1388 1391 1394 1397 1399
1427 1421 1416 1410 1405 1400 1395 1390 1384 1379 1375 1371 1368 1365 1363 1361 1359 1357 1355 1353 1354 1353 1352 1351 1349 1349 1350 1352 1351 1353 1356 1358 1359 1362 1365 1367 1370 1372 1375 1379 1382 1385 1388
1417 1411 1405 1399 1394 1389 1385 1380 1375 1369 1364 1360 1356 1354 1352 1350 1348 1346 1345 1344 1343 1341 1340 1340 1338 1337 1338 1340 1342 1344 1346 1348 1349 1351 1354 1355 1359 1360 1363 1367 1371 1374 1377
1406 1400 1394 1389 1382 1377 1373 1369 1364 1360 1354 1350 1347 1343 1340 1338 1337 1334 1333 1332 1332 1331 1330 1329 1326 1325 1327 1330 1334 1335 1336 1337 1338 1342 1344 1344 1348 1349 1353 1356 1360 1363 1365
1396 1390 1383 1378 1372 1366 1363 1358 1354 1349 1344 1340 1337 1334 1330 1327 1326 1324 1321 1319 1318 1319 1320 1319 1317 1316 1318 1321 1323 1325 1327 1328 1331 1333 1335 1336 1338 1340 1344 1346 1350 1353 1355
1386 1380 1374 1368 1362 1356 1353 1348 1344 1339 1334 1330 1327 1324 1321 1318 1316 1314 1312 1309 1307 1306 1308 1308 1308 1308 1309 1311 1313 1316 1317 1319 1320 1322 1325 1327 1328 1332 1335 1336 1340 1342 1344
1378 1371 1364 1359 1353 1347 1343 1340 1336 1331 1326 1321 1318 1315 1313 1310 1307 1305 1303 1301 1298 1297 1298 1297 1298 1299 1300 1302 1304 1305 1306 1309 1310 1313 1315 1319 1321 1325 1325 1326 1329 1332 1333